Regional Weather Roundup
Issued by NWS

Home | Current Version | Previous Version | Text Only | Print | Product List | Glossary On
Versions: 1 2 3 4 5 6 7 8 9 10 11 12 13 14 15 16 17 18 19 20 21 22 23 24 25 26 27 28 29 30 31 32 33 34 35 36 37 38 39 40 41 42 43 44 45 46 47 48 49 50
000
ASUS45 KREV 261810
RWRNV
NEVADA REGIONAL WEATHER ROUNDUP
NATIONAL WEATHER SERVICE RENO NV
1100 AM PDT TUE JUL 26 2016

NOTE: "FAIR" INDICATES FEW OR NO CLOUDS BELOW 12,000 FEET WITH NO
SIGNIFICANT WEATHER AND/OR OBSTRUCTIONS TO VISIBILITY.

NVZ001-003-004-261900-
WESTERN NEVADA

CITY           SKY/WX    TMP DP  RH WIND       PRES   REMARKS
RENO           MOSUNNY   81  35  19 CALM      30.16F
6HR MIN TEMP:  59; 6HR MAX TEMP:  82;

CARSON CITY    FAIR      82  32  16 CALM      30.19F
MINDEN         FAIR      81  36  19 NW3       30.19F
PYRAMID LAKE     N/A     82 N/A N/A NE5         N/A
FALLON         MOSUNNY   89  34  14 VRB5      30.11F
6HR MIN TEMP:  59; 6HR MAX TEMP:  89;

LOVELOCK       SUNNY     90  34  13 SE7       30.11S
6HR MIN TEMP:  53; 6HR MAX TEMP:  91;

HAWTHORNE      SUNNY     90  32  12 CALM      30.14S
$$

NVZ002-CAZ072-073-261900-
NORTHERN AND CENTRAL SIERRA

CITY           SKY/WX    TMP DP  RH WIND       PRES   REMARKS
S. LAKE TAHOE  SUNNY     74  43  32 VRB3      30.29S
6HR MIN TEMP:  40; 6HR MAX TEMP:  74;

TRUCKEE        SUNNY     73  39  29 CALM      30.29S
SQUAW VLY 8000 NOT AVBL
SUSANVILLE     SUNNY     84  43  23 CALM      30.14
MAMMOTH LAKES    N/A     83  24  11 E9        30.35S
6HR MIN TEMP:  50; 6HR MAX TEMP:  84;

BRIDGEPORT       N/A     83  20   9 VRB3      30.28F
$$

NVZ030-031-036-261900-
NORTHERN NEVADA

CITY           SKY/WX    TMP DP  RH WIND       PRES   REMARKS
ELKO           SUNNY     89  14   6 MISG      30.17S
6HR MIN TEMP:  51; 6HR MAX TEMP:  89;

WINNEMUCCA     SUNNY     90  33  13 NW6       30.12F
6HR MIN TEMP:  51; 6HR MAX TEMP:  90;

WENDOVER       SUNNY     90  32  12 SE9       30.08S
$$

NVZ035-037-261900-
CENTRAL NEVADA

CITY           SKY/WX    TMP DP  RH WIND       PRES   REMARKS
ELY            SUNNY     88  19   8 SE5       30.25F
6HR MIN TEMP:  48; 6HR MAX TEMP:  89;

EUREKA           N/A     88  15   6 VRB3      30.23F
6HR MIN TEMP:  51; 6HR MAX TEMP:  88;

$$

NVZ013-014-261900-
SOUTH CENTRAL NEVADA

CITY           SKY/WX    TMP DP  RH WIND       PRES   REMARKS
TONOPAH        SUNNY     90  19   7 CALM      30.21F
6HR MIN TEMP:  59; 6HR MAX TEMP:  90;

$$

NVZ017-020-022-261900-
SOUTHERN NEVADA

CITY           SKY/WX    TMP DP  RH WIND       PRES   REMARKS
LAS VEGAS      MOSUNNY  101  45  15 VRB6      29.91F
6HR MIN TEMP:  87; 6HR MAX TEMP: 101;

N. LAS VEGAS   SUNNY     98  52  21 SE6       29.94F
6HR MIN TEMP:  86; 6HR MAX TEMP:  98;

NELLIS AFB       N/A    101  51  18 W1        29.92R
HENDERSON      SUNNY    101  50  18 E6        29.98F
6HR MIN TEMP:  86; 6HR MAX TEMP: 102;

MERCURY        SUNNY     99  40  13 SW7       30.02S
6HR MIN TEMP:  75; 6HR MAX TEMP:  99;

$$



USA.gov is the U.S. government's official web portal to all federal, state and local government web resources and services.